Connecta IOT-9

operational
NORAD ID: 64534 Int'l Des: 2025-135 Owner: PLNSST Country: TR
LEOCIRCULARRETROGRADESSO

Über Connecta IOT-9

Beschreibung wird geladen...

Live-Position

3D-Globus wird geladen...

Nächste Überflüge

Höhenverlauf

Altitude vs Time

uPlot chart will show altitude changes over time

Zweizeiliger Elementsatz

1 64534U 25135G 26061.27330535 .00005487 00000-0 25935-3 0 9992
2 64534 97.4632 177.2198 0005757 168.4676 191.6692 15.19800274 38587
Epoch: 2. März 2026 • Age: 29 hours

Aktueller Status

Höhe 505.0 km
Geschwindigkeit 7.62 km/s
Subsatellitenpunkt 18.74°N, 118.87°E
Startdatum 23. Juni 2025
Alter 0.6 years
Typ other

Technische Details

Klassifizierung Payload
Masse 10.00 kg
Trockenmasse 10.00 kg
Gesamtmasse 10.00 kg
Länge 0.30 m
Durchmesser 0.20 m
Spannweite 0.30 m
Form Box
Hersteller PLNSST
Bus-Typ Cubesat 6U
Phasenstatus In Orbit
Besitzer/Staat PLNSST/TR

Große Konstellationen

Loading constellations...